Terug naar catalogus

O3B FM12

ActiefCommunicatieMEO
NORAD 40350·PAYLOAD·🇱🇺 Luxembourg

Gelanceerd Dec 18, 2014 vanaf Guiana Space Centre

Loading…

Volgende Passages (komende 24 uur)

TLE

VersSource: CelesTrak SupGP

Epoch: Sep 14, 2026, 16:00 UTC

1 40350C 14083C   26257.66666667  .00000000  00000+0  00000+0 0  2574
2 40350   0.0534 349.2396 0002442 183.5779  37.2037  5.00116142    17

Volg O3B FM12 in realtime met AllMySat

Download on the App Store